This is the latest recevied weather packets stored in our database for station/object WX1NWA. If no packets are shown the sender has not sent any weather packets the latest 10 day(s).
| Time | Temp. | Humidity | Pressure | Rain* | Wind** | Luminosity | Snow |
|---|---|---|---|---|---|---|---|
| 1778033771 | 7.78° C | 99% | 1012.1 hPa | 0 mm | - | 0 W/m² | - |
| 1778033468 | 7.78° C | 99% | 1012.1 hPa | 0 mm | - | 0 W/m² | - |
| 1778033165 | 7.78° C | 99% | 1012.1 hPa | 0 mm | - | 0 W/m² | - |
| 1778032863 | 7.78° C | 99% | 1011.8 hPa | 0 mm | - | 0 W/m² | - |
| 1778032560 | 8.33° C | 99% | 1011.7 hPa | 0 mm | - | 0 W/m² | - |
| 1778032256 | 8.33° C | 99% | 1011.7 hPa | 0 mm | - | 0 W/m² | - |
| 1778031954 | 8.33° C | 99% | 1010.8 hPa | 0 mm | - | 0 W/m² | - |
| 1778031649 | 8.33° C | 99% | 1011.1 hPa | 0 mm | - | 0 W/m² | - |
| 1778031348 | 8.33° C | 99% | 1011.1 hPa | 0 mm | - | 0 W/m² | - |
| 1778031044 | 8.33° C | 99% | 1010.8 hPa | 0 mm | - | 0 W/m² | - |
| 1778030740 | 8.33° C | 99% | 1011.1 hPa | 1.78 mm | - | 0 W/m² | - |
| 1778030437 | 8.89° C | 99% | 1011.6 hPa | 1.78 mm | - | 0 W/m² | - |
| 1778030135 | 8.89° C | 99% | 1011.6 hPa | 0 mm | - | 0 W/m² | - |
| 1778029831 | 8.89° C | 99% | 1011.2 hPa | 0 mm | - | 0 W/m² | - |
| 1778029531 | 8.89° C | 99% | 1011.4 hPa | 0 mm | - | 0 W/m² | - |
| 1778029227 | 8.89° C | 99% | 1011.4 hPa | 0 mm | - | 0 W/m² | - |
| 1778028924 | 8.89° C | 99% | 1010.9 hPa | 0 mm | - | 0 W/m² | - |
| 1778028619 | 8.89° C | 99% | 1010.7 hPa | 0 mm | - | 0 W/m² | - |
| 1778028317 | 8.89° C | 99% | 1010.5 hPa | 1.27 mm | - | 0 W/m² | - |
| 1778028014 | 8.89° C | 99% | 1010.2 hPa | 1.27 mm | - | 0 W/m² | - |
| 1778027710 | 8.89° C | 99% | 1010.4 hPa | 3.05 mm | - | 0 W/m² | - |
| 1778027406 | 9.44° C | 99% | 1010.2 hPa | 3.05 mm | - | 0 W/m² | - |
| 1778027102 | 9.44° C | 99% | 1010.2 hPa | 0 mm | - | 1 W/m² | - |
| 1778026798 | 9.44° C | 99% | 1009.9 hPa | 0 mm | - | 0 W/m² | - |
| 1778026495 | 9.44° C | 99% | 1009.6 hPa | 0 mm | - | 2 W/m² | - |
* Rain latest hour (hover to see other rain measurements)
** Current wind speed in m/s (hover to see current wind gust speed)